| time (UTC) | temp F | wind direction | speed MPH | gust MPH | rain 1hr in | rain 24hr in | rain mn in | humidity % | barometer mb |
| 20260902133030 | 67 | 211 | 0.0 | 1.0 | 0.03 | 0.07 | 0.04 | 97 | 1016.9 |
| 20260902131529 | 66 | 211 | 0.0 | 4.0 | 0.01 | 0.05 | 0.02 | 97 | 1017.1 |
| 20260902130027 | 66 | 205 | 0.0 | 3.0 | 0.00 | 0.04 | 0.01 | 97 | 1017.1 |
| 20260902124531 | 66 | 195 | 2.0 | 7.0 | 0.00 | 0.04 | 0.01 | 97 | 1016.7 |
| 20260902123023 | 66 | 227 | 1.0 | 4.0 | 0.00 | 0.04 | 0.01 | 97 | 1016.3 |
| 20260902121519 | 66 | 200 | 0.0 | 3.0 | 0.00 | 0.04 | 0.01 | 97 | 1016.0 |
| 20260902120018 | 66 | 238 | 0.0 | 2.0 | 0.00 | 0.04 | 0.01 | 97 | 1016.0 |
| 20260902114517 | 66 | 238 | 0.0 | 4.0 | 0.00 | 0.04 | 0.01 | 97 | 1015.8 |
| 20260902113015 | 66 | 215 | 1.0 | 6.0 | 0.01 | 0.04 | 0.01 | 97 | 1015.6 |
| 20260902111527 | 65 | 277 | 0.0 | 3.0 | 0.01 | 0.04 | 0.01 | 97 | 1015.5 |
| 20260902110026 | 65 | 259 | 0.0 | 2.0 | 0.01 | 0.04 | 0.01 | 97 | 1015.5 |
| 20260902104526 | 65 | 259 | 0.0 | 2.0 | 0.01 | 0.04 | 0.01 | 97 | 1015.4 |
| 20260902103037 | 64 | 259 | 0.0 | 0.0 | 0.00 | 0.03 | 0.00 | 97 | 1015.4 |
| 20260902101538 | 65 | 259 | 0.0 | 2.0 | 0.00 | 0.03 | 0.00 | 97 | 1015.6 |
| 20260902100021 | 65 | 259 | 0.0 | 2.0 | 0.00 | 0.03 | 0.00 | 97 | 1015.5 |
| 20260902094524 | 65 | 273 | 0.0 | 1.0 | 0.00 | 0.03 | 0.00 | 97 | 1015.6 |
| 20260902093021 | 65 | 273 | 0.0 | 0.0 | 0.00 | 0.03 | 0.00 | 97 | 1015.6 |
| 20260902091529 | 65 | 273 | 0.0 | 0.0 | 0.00 | 0.03 | 0.00 | 97 | 1015.9 |
| 20260902090025 | 65 | 273 | 0.0 | 1.0 | 0.00 | 0.03 | 0.00 | 96 | 1015.8 |
| 20260902084539 | 65 | 273 | 0.0 | 0.0 | 0.00 | 0.03 | 0.00 | 97 | 1016.0 |
| 20260902083033 | 65 | 273 | 0.0 | 0.0 | 0.00 | 0.03 | 0.00 | 96 | 1015.7 |
| 20260902081523 | 65 | 273 | 0.0 | 1.0 | 0.00 | 0.03 | 0.00 | 96 | 1015.5 |
| 20260902080022 | 65 | 273 | 0.0 | 0.0 | 0.00 | 0.03 | 0.00 | 96 | 1015.5 |
| 20260902074519 | 65 | 273 | 0.0 | 0.0 | 0.00 | 0.03 | 0.00 | 96 | 1015.7 |
| 20260902073019 | 66 | 273 | 0.0 | 0.0 | 0.00 | 0.03 | 0.00 | 96 | 1015.3 |
| 20260902071523 | 66 | 273 | 0.0 | 0.0 | 0.00 | 0.03 | 0.00 | 96 | 1015.7 |
| 20260902070020 | 66 | 273 | 0.0 | 1.0 | 0.00 | 0.03 | 0.00 | 96 | 1015.6 |
| 20260902064514 | 66 | 254 | 0.0 | 1.0 | 0.00 | 0.03 | 0.00 | 96 | 1015.7 |
| 20260902063016 | 66 | 254 | 0.0 | 0.0 | 0.00 | 0.04 | 0.03 | 96 | 1015.6 |
| 20260902061505 | 66 | 254 | 0.0 | 0.0 | 0.00 | 0.04 | 0.03 | 96 | 1015.9 |
| 20260902060004 | 67 | 254 | 0.0 | 0.0 | 0.00 | 0.04 | 0.03 | 96 | 1016.1 |
| 20260902054503 | 67 | 254 | 0.0 | 4.0 | 0.00 | 0.04 | 0.03 | 96 | 1016.3 |
| 20260902053001 | 67 | 189 | 0.0 | 2.0 | 0.00 | 0.04 | 0.03 | 96 | 1016.2 |
| 20260902051501 | 67 | 188 | 0.0 | 3.0 | 0.00 | 0.04 | 0.03 | 95 | 1016.1 |
| 20260902050002 | 67 | 184 | 0.0 | 2.0 | 0.00 | 0.04 | 0.03 | 95 | 1016.0 |
| 20260902044609 | 68 | 182 | 0.0 | 0.0 | 0.00 | 0.04 | 0.03 | 95 | 1015.8 |
| 20260902043102 | 68 | 182 | 0.0 | 0.0 | 0.00 | 0.04 | 0.03 | 95 | 1015.6 |
| 20260902041556 | 68 | 182 | 0.0 | 3.0 | 0.00 | 0.04 | 0.03 | 95 | 1015.6 |
| 20260902040056 | 68 | 195 | 0.0 | 1.0 | 0.00 | 0.04 | 0.03 | 95 | 1015.3 |
| 20260902034601 | 68 | 195 | 0.0 | 0.0 | 0.00 | 0.04 | 0.03 | 94 | 1015.2 |
| 20260902033105 | 68 | 195 | 0.0 | 0.0 | 0.00 | 0.04 | 0.03 | 94 | 1014.9 |
| 20260902031600 | 68 | 195 | 0.0 | 1.0 | 0.00 | 0.04 | 0.03 | 94 | 1015.1 |
| 20260902030059 | 69 | 195 | 0.0 | 1.0 | 0.00 | 0.04 | 0.03 | 94 | 1015.1 |
| 20260902024610 | 69 | 194 | 0.0 | 0.0 | 0.00 | 0.04 | 0.03 | 94 | 1015.1 |
| 20260902023106 | 69 | 194 | 0.0 | 1.0 | 0.00 | 0.04 | 0.03 | 95 | 1015.1 |
| 20260902021505 | 69 | 309 | 0.0 | 11.0 | 0.00 | 0.04 | 0.03 | 95 | 1015.3 |
| 20260902020006 | 69 | 271 | 0.0 | 0.0 | 0.00 | 0.04 | 0.03 | 94 | 1015.1 |
| 20260902014503 | 69 | 271 | 0.0 | 0.0 | 0.00 | 0.04 | 0.03 | 94 | 1015.0 |
| 20260902013004 | 70 | 271 | 0.0 | 3.0 | 0.00 | 0.04 | 0.03 | 95 | 1014.9 |
| 20260902011510 | 70 | 331 | 0.0 | 2.0 | 0.00 | 0.04 | 0.03 | 95 | 1014.6 |
| 20260902010016 | 71 | 37 | 0.0 | 0.0 | 0.00 | 0.04 | 0.03 | 95 | 1014.7 |
| 20260902004509 | 72 | 36 | 0.0 | 0.0 | 0.00 | 0.04 | 0.03 | 94 | 1014.4 |
| 20260902003009 | 72 | 36 | 0.0 | 0.0 | 0.00 | 0.04 | 0.03 | 94 | 1014.4 |
| 20260902001554 | 72 | 36 | 0.0 | 0.0 | 0.00 | 0.04 | 0.03 | 94 | 1014.4 |
| 20260902000059 | 72 | 36 | 0.0 | 1.0 | 0.00 | 0.04 | 0.03 | 93 | 1013.8 |
| 20260901234553 | 72 | 36 | 0.0 | 1.0 | 0.00 | 0.04 | 0.03 | 90 | 1013.6 |
| 20260901233053 | 73 | 35 | 0.0 | 2.0 | 0.00 | 0.04 | 0.03 | 91 | 1013.2 |
| 20260901231554 | 73 | 347 | 0.0 | 0.0 | 0.02 | 0.04 | 0.03 | 92 | 1012.9 |
| 20260901230054 | 73 | 347 | 0.0 | 1.0 | 0.03 | 0.04 | 0.03 | 89 | 1013.1 |
| 20260901224553 | 74 | 343 | 0.0 | 1.0 | 0.03 | 0.04 | 0.03 | 90 | 1013.3 |
| 20260901223053 | 76 | 311 | 0.0 | 6.0 | 0.03 | 0.04 | 0.03 | 89 | 1013.4 |
| 20260901221552 | 79 | 16 | 1.0 | 7.0 | 0.02 | 0.03 | 0.02 | 81 | 1013.3 |
| 20260901220051 | 84 | 24 | 1.0 | 5.0 | 0.00 | 0.01 | 0.00 | 67 | 1012.8 |
| 20260901214550 | 87 | 355 | 1.0 | 6.0 | 0.00 | 0.01 | 0.00 | 64 | 1013.1 |
| 20260901213110 | 88 | 290 | 1.0 | 7.0 | 0.00 | 0.01 | 0.00 | 60 | 1013.0 |
| 20260901211553 | 88 | 240 | 1.0 | 6.0 | 0.00 | 0.01 | 0.00 | 62 | 1012.8 |
| 20260901210052 | 88 | 189 | 1.0 | 4.0 | 0.00 | 0.01 | 0.00 | 61 | 1012.6 |
| 20260901204552 | 88 | 306 | 1.0 | 5.0 | 0.00 | 0.01 | 0.00 | 63 | 1012.6 |
| 20260901203051 | 88 | 235 | 1.0 | 6.0 | 0.00 | 0.01 | 0.00 | 63 | 1012.8 |
| 20260901201555 | 88 | 244 | 0.0 | 5.0 | 0.00 | 0.01 | 0.00 | 64 | 1012.9 |
| 20260901200052 | 87 | 259 | 0.0 | 6.0 | 0.00 | 0.01 | 0.00 | 64 | 1013.1 |
| 20260901194551 | 86 | 325 | 2.0 | 9.0 | 0.00 | 0.01 | 0.00 | 65 | 1013.3 |
| 20260901193052 | 86 | 270 | 1.0 | 6.0 | 0.00 | 0.01 | 0.00 | 65 | 1013.3 |
| 20260901191541 | 86 | 280 | 0.0 | 5.0 | 0.00 | 0.01 | 0.00 | 68 | 1013.4 |
| 20260901190039 | 85 | 242 | 1.0 | 6.0 | 0.00 | 0.01 | 0.00 | 69 | 1013.5 |
| 20260901184545 | 87 | 313 | 0.0 | 5.0 | 0.00 | 0.01 | 0.00 | 68 | 1013.7 |
| 20260901183036 | 86 | 217 | 0.0 | 4.0 | 0.00 | 0.01 | 0.00 | 70 | 1013.8 |
| 20260901181538 | 85 | 231 | 0.0 | 6.0 | 0.00 | 0.01 | 0.00 | 71 | 1013.7 |
| 20260901180038 | 84 | 204 | 0.0 | 6.0 | 0.00 | 0.01 | 0.00 | 72 | 1013.9 |
| 20260901174532 | 84 | 221 | 1.0 | 7.0 | 0.00 | 0.01 | 0.00 | 73 | 1013.9 |
| 20260901173028 | 82 | 275 | 0.0 | 4.0 | 0.00 | 0.02 | 0.00 | 75 | 1013.8 |
| 20260901171522 | 81 | 296 | 0.0 | 3.0 | 0.00 | 0.02 | 0.00 | 78 | 1013.7 |
| 20260901170021 | 81 | 188 | 0.0 | 3.0 | 0.00 | 0.02 | 0.00 | 79 | 1013.8 |
| 20260901164518 | 81 | 9 | 0.0 | 4.0 | 0.00 | 0.02 | 0.00 | 78 | 1013.7 |
| 20260901163017 | 80 | 236 | 1.0 | 4.0 | 0.00 | 0.06 | 0.00 | 78 | 1013.8 |
| 20260901161518 | 80 | 244 | 0.0 | 4.0 | 0.00 | 0.06 | 0.00 | 78 | 1013.9 |
| 20260901160021 | 80 | 224 | 0.0 | 5.0 | 0.00 | 0.06 | 0.00 | 80 | 1014.2 |
| 20260901154513 | 79 | 309 | 0.0 | 3.0 | 0.00 | 0.06 | 0.00 | 82 | 1014.0 |
| 20260901153010 | 78 | 313 | 0.0 | 5.0 | 0.00 | 0.12 | 0.00 | 84 | 1014.3 |
| 20260901151507 | 77 | 222 | 0.0 | 4.0 | 0.00 | 0.12 | 0.00 | 86 | 1014.2 |
| 20260901150010 | 76 | 250 | 2.0 | 6.0 | 0.00 | 0.12 | 0.00 | 88 | 1014.5 |
| 20260901144600 | 74 | 282 | 1.0 | 4.0 | 0.00 | 0.12 | 0.00 | 92 | 1014.5 |
| 20260901143109 | 72 | 283 | 1.0 | 5.0 | 0.00 | 0.12 | 0.00 | 96 | 1014.6 |
| 20260901141603 | 71 | 280 | 0.0 | 4.0 | 0.00 | 0.12 | 0.00 | 97 | 1014.6 |
| 20260901140058 | 70 | 265 | 0.0 | 4.0 | 0.00 | 0.12 | 0.00 | 98 | 1014.6 |
| 20260901134617 | 69 | 236 | 0.0 | 2.0 | 0.00 | 0.12 | 0.00 | 98 | 1014.7 |